Terug naar catalogus

STARLINK-32520

ActiefCommunicatieVLEO
NORAD 62021·PAYLOAD·🇺🇸 United States

Gelanceerd Nov 18, 2024 vanaf Vandenberg Space Force Base

Loading…

Volgende Passages (komende 24 uur)

TLE

VersSource: CelesTrak SupGP

Epoch: Sep 14, 2026, 23:02 UTC

1 62021C 24213P   26257.96020833 -.00007877  00000+0 -23281-3 0  2572
2 62021  53.1596   7.3736 0001241  83.3980 350.5754 15.34382377    10

Volg STARLINK-32520 in realtime met AllMySat

Download on the App Store